Time,TemperatureF,DewpointF,PressureIn,WindDirection,WindDirectionDegrees,WindSpeedMPH,WindSpeedGustMPH,Humidity,HourlyPrecipIn,Conditions,Clouds,dailyrainin,SoftwareType,DateUTC
2013-03-06 00:00:00,27.8,24.4,29.82,NNE,31,8.0,8.0,87,0.00,,,0.00,Wunderground v.1.15,2013-03-06 05:00:00,
2013-03-06 00:09:00,27.8,24.4,29.82,NNE,16,7.0,10.0,87,0.00,,,0.00,Wunderground v.1.15,2013-03-06 05:09:00,
2013-03-06 00:19:00,27.9,24.5,29.82,NNE,19,7.0,7.0,87,0.00,,,0.00,Wunderground v.1.15,2013-03-06 05:19:00,
2013-03-06 00:30:00,27.8,24.7,29.82,NNE,15,7.0,7.0,88,0.00,,,0.00,Wunderground v.1.15,2013-03-06 05:30:00,
2013-03-06 00:39:00,28.0,24.9,29.81,NNE,20,7.0,7.0,88,0.00,,,0.00,Wunderground v.1.15,2013-03-06 05:39:00,
2013-03-06 00:49:00,28.0,24.6,29.82,NE,40,7.0,7.0,87,0.00,,,0.00,Wunderground v.1.15,2013-03-06 05:49:00,
2013-03-06 01:00:00,27.8,24.7,29.82,NE,40,8.0,8.0,88,0.00,,,0.00,Wunderground v.1.15,2013-03-06 06:00:00,
2013-03-06 01:09:00,27.6,24.5,29.82,NNE,21,7.0,7.0,88,0.00,,,0.00,Wunderground v.1.15,2013-03-06 06:09:00,
2013-03-06 01:19:00,27.6,24.8,29.82,North,5,7.0,7.0,89,0.00,,,0.00,Wunderground v.1.15,2013-03-06 06:19:00,
2013-03-06 01:39:00,27.4,24.9,29.82,NNE,13,7.0,7.0,90,0.00,,,0.00,Wunderground v.1.15,2013-03-06 06:39:00,
2013-03-06 01:49:00,27.4,24.9,29.83,North,9,7.0,7.0,90,0.00,,,0.00,Wunderground v.1.15,2013-03-06 06:49:00,
2013-03-06 02:00:00,27.4,24.9,29.83,North,5,7.0,7.0,90,0.00,,,0.00,Wunderground v.1.15,2013-03-06 07:00:00,
2013-03-06 02:10:00,27.4,24.9,29.83,NNE,16,6.0,6.0,90,0.00,,,0.00,Wunderground v.1.15,2013-03-06 07:10:00,
2013-03-06 02:19:00,27.4,24.9,29.83,NNE,22,6.0,7.0,90,0.00,,,0.00,Wunderground v.1.15,2013-03-06 07:19:00,
2013-03-06 02:29:00,27.4,24.9,29.83,NNE,20,6.0,6.0,90,0.00,,,0.00,Wunderground v.1.15,2013-03-06 07:29:00,
2013-03-06 02:39:00,27.4,25.1,29.83,NNE,16,6.0,7.0,91,0.00,,,0.00,Wunderground v.1.15,2013-03-06 07:39:00,
2013-03-06 02:49:00,27.4,25.1,29.83,NNE,13,6.0,6.0,91,0.00,,,0.00,Wunderground v.1.15,2013-03-06 07:49:00,
2013-03-06 03:10:00,27.6,25.3,29.83,NNE,14,7.0,7.0,91,0.00,,,0.00,Wunderground v.1.15,2013-03-06 08:10:00,
2013-03-06 03:19:00,27.6,25.3,29.84,NNE,18,6.0,7.0,91,0.00,,,0.00,Wunderground v.1.15,2013-03-06 08:19:00,
2013-03-06 03:29:00,27.6,25.1,29.84,North,10,6.0,6.0,90,0.00,,,0.00,Wunderground v.1.15,2013-03-06 08:29:00,
2013-03-06 03:39:00,27.5,25.0,29.84,NNE,23,6.0,6.0,90,0.00,,,0.00,Wunderground v.1.15,2013-03-06 08:39:00,
2013-03-06 03:49:00,27.5,25.2,29.85,NE,34,6.0,6.0,91,0.00,,,0.00,Wunderground v.1.15,2013-03-06 08:49:00,
2013-03-06 04:00:00,27.5,25.2,29.85,North,5,6.0,6.0,91,0.00,,,0.00,Wunderground v.1.15,2013-03-06 09:00:00,
2013-03-06 04:09:00,27.4,25.1,29.85,NNE,18,5.0,6.0,91,0.00,,,0.00,Wunderground v.1.15,2013-03-06 09:09:00,
2013-03-06 04:19:00,27.5,25.2,29.86,NNE,29,6.0,6.0,91,0.00,,,0.00,Wunderground v.1.15,2013-03-06 09:19:00,
2013-03-06 04:29:00,27.4,25.1,29.86,NNE,14,5.0,6.0,91,0.00,,,0.00,Wunderground v.1.15,2013-03-06 09:29:00,
2013-03-06 04:39:00,27.4,25.1,29.87,North,9,6.0,6.0,91,0.00,,,0.00,Wunderground v.1.15,2013-03-06 09:39:00,
2013-03-06 04:49:00,27.4,25.1,29.88,NNE,17,6.0,6.0,91,0.00,,,0.00,Wunderground v.1.15,2013-03-06 09:49:00,
2013-03-06 05:00:00,27.4,25.1,29.89,North,5,6.0,6.0,91,0.00,,,0.00,Wunderground v.1.15,2013-03-06 10:00:00,
2013-03-06 05:09:00,27.4,25.1,29.89,NNE,15,4.0,4.0,91,0.00,,,0.00,Wunderground v.1.15,2013-03-06 10:09:00,
2013-03-06 05:19:00,27.4,25.1,29.90,NE,39,5.0,5.0,91,0.00,,,0.00,Wunderground v.1.15,2013-03-06 10:19:00,
2013-03-06 05:29:00,27.3,25.0,29.90,NNE,21,4.0,4.0,91,0.00,,,0.00,Wunderground v.1.15,2013-03-06 10:29:00,
2013-03-06 05:39:00,27.2,24.9,29.91,NNE,23,4.0,4.0,91,0.00,,,0.00,Wunderground v.1.15,2013-03-06 10:39:00,
2013-03-06 05:49:00,27.2,24.9,29.92,NNE,19,4.0,4.0,91,0.00,,,0.00,Wunderground v.1.15,2013-03-06 10:49:00,
2013-03-06 05:59:00,27.2,24.9,29.93,NNE,19,4.0,4.0,91,0.00,,,0.00,Wunderground v.1.15,2013-03-06 10:59:00,
2013-03-06 06:09:00,27.3,25.0,29.93,North,5,4.0,4.0,91,0.00,,,0.00,Wunderground v.1.15,2013-03-06 11:09:00,
2013-03-06 06:19:00,27.4,25.1,29.94,NNE,14,5.0,5.0,91,0.00,,,0.00,Wunderground v.1.15,2013-03-06 11:19:00,
2013-03-06 06:29:00,27.4,25.1,29.94,NNE,22,4.0,4.0,91,0.00,,,0.00,Wunderground v.1.15,2013-03-06 11:29:00,
2013-03-06 06:39:00,27.3,25.0,29.95,NNE,15,4.0,5.0,91,0.00,,,0.00,Wunderground v.1.15,2013-03-06 11:39:00,
2013-03-06 06:49:00,27.3,25.0,29.95,NE,42,4.0,4.0,91,0.00,,,0.00,Wunderground v.1.15,2013-03-06 11:49:00,
2013-03-06 06:59:00,27.3,25.0,29.96,NNE,30,4.0,7.0,91,0.00,,,0.00,Wunderground v.1.15,2013-03-06 11:59:00,
2013-03-06 07:09:00,27.5,25.2,29.96,North,11,4.0,4.0,91,0.00,,,0.00,Wunderground v.1.15,2013-03-06 12:09:00,
2013-03-06 07:19:00,27.5,25.2,29.97,NNE,23,4.0,4.0,91,0.00,,,0.00,Wunderground v.1.15,2013-03-06 12:19:00,
2013-03-06 07:29:00,27.8,25.5,29.97,NNE,19,3.0,4.0,91,0.00,,,0.00,Wunderground v.1.15,2013-03-06 12:29:00,
2013-03-06 07:39:00,28.4,26.1,29.98,NNE,24,4.0,4.0,91,0.00,,,0.00,Wunderground v.1.15,2013-03-06 12:39:00,
2013-03-06 07:49:00,29.1,26.8,29.99,NNE,30,4.0,4.0,91,0.00,,,0.00,Wunderground v.1.15,2013-03-06 12:49:00,
2013-03-06 07:59:00,29.5,26.9,30.00,NNE,19,5.0,5.0,90,0.00,,,0.00,Wunderground v.1.15,2013-03-06 12:59:00,
2013-03-06 08:09:00,29.9,27.3,30.00,North,5,5.0,5.0,90,0.00,,,0.00,Wunderground v.1.15,2013-03-06 13:09:00,
2013-03-06 08:19:00,30.5,27.6,30.01,NNE,27,4.0,5.0,89,0.00,,,0.00,Wunderground v.1.15,2013-03-06 13:19:00,
2013-03-06 08:29:00,31.0,28.1,30.01,NNE,22,5.0,5.0,89,0.00,,,0.00,Wunderground v.1.15,2013-03-06 13:29:00,
2013-03-06 08:39:00,31.4,28.3,30.02,NE,45,5.0,10.0,88,0.00,,,0.00,Wunderground v.1.15,2013-03-06 13:39:00,
2013-03-06 08:49:00,31.6,28.2,30.02,NE,36,7.0,7.0,87,0.00,,,0.00,Wunderground v.1.15,2013-03-06 13:49:00,
2013-03-06 08:59:00,32.3,28.9,30.03,NE,44,7.0,7.0,87,0.00,,,0.00,Wunderground v.1.15,2013-03-06 13:59:00,
2013-03-06 09:09:00,33.1,29.4,30.03,NE,36,6.0,6.0,86,0.00,,,0.00,Wunderground v.1.15,2013-03-06 14:09:00,
2013-03-06 09:19:00,33.7,29.7,30.04,NE,53,6.0,8.0,85,0.00,,,0.00,Wunderground v.1.15,2013-03-06 14:19:00,
2013-03-06 09:29:00,32.8,29.1,30.04,NNE,32,7.0,7.0,86,0.00,,,0.00,Wunderground v.1.15,2013-03-06 14:29:00,
2013-03-06 09:39:00,33.2,29.2,30.05,North,5,7.0,7.0,85,0.00,,,0.00,Wunderground v.1.15,2013-03-06 14:39:00,
2013-03-06 09:49:00,33.8,29.5,30.05,NNE,24,7.0,9.0,84,0.00,,,0.00,Wunderground v.1.15,2013-03-06 14:49:00,
2013-03-06 09:59:00,34.3,30.3,30.05,NE,52,6.0,7.0,85,0.00,,,0.00,Wunderground v.1.15,2013-03-06 14:59:00,
2013-03-06 10:09:00,35.9,30.6,30.06,NE,38,7.0,7.0,81,0.00,,,0.00,Wunderground v.1.15,2013-03-06 15:09:00,
2013-03-06 10:19:00,36.8,30.9,30.06,ENE,65,7.0,12.0,79,0.00,,,0.00,Wunderground v.1.15,2013-03-06 15:19:00,
2013-03-06 10:29:00,37.1,30.9,30.07,ENE,59,7.0,7.0,78,0.00,,,0.00,Wunderground v.1.15,2013-03-06 15:29:00,
2013-03-06 10:39:00,36.5,30.6,30.07,NE,43,7.0,7.0,79,0.00,,,0.00,Wunderground v.1.15,2013-03-06 15:39:00,
2013-03-06 10:49:00,36.2,30.6,30.07,NE,38,7.0,7.0,80,0.00,,,0.00,Wunderground v.1.15,2013-03-06 15:49:00,
2013-03-06 10:59:00,37.5,30.9,30.08,ENE,57,7.0,7.0,77,0.00,,,0.00,Wunderground v.1.15,2013-03-06 15:59:00,
2013-03-06 11:09:00,37.7,31.5,30.08,ENE,71,7.0,7.0,78,0.00,,,0.00,Wunderground v.1.15,2013-03-06 16:09:00,
2013-03-06 11:19:00,38.7,31.8,30.08,ENE,73,6.0,7.0,76,0.00,,,0.00,Wunderground v.1.15,2013-03-06 16:19:00,
2013-03-06 11:29:00,39.3,32.0,30.08,ENE,71,6.0,8.0,75,0.00,,,0.00,Wunderground v.1.15,2013-03-06 16:29:00,
2013-03-06 11:38:00,39.6,32.0,30.09,NE,38,5.0,5.0,74,0.00,,,0.00,Wunderground v.1.15,2013-03-06 16:38:00,
2013-03-06 11:49:00,40.3,32.0,30.09,ENE,65,5.0,5.0,72,0.00,,,0.00,Wunderground v.1.15,2013-03-06 16:49:00,
2013-03-06 11:59:00,39.8,31.8,30.09,ENE,57,6.0,6.0,73,0.00,,,0.00,Wunderground v.1.15,2013-03-06 16:59:00,
2013-03-06 12:10:00,40.0,30.6,30.09,East,80,7.0,7.0,69,0.00,,,0.00,Wunderground v.1.15,2013-03-06 17:10:00,
2013-03-06 12:20:00,40.8,31.8,30.09,NE,44,6.0,6.0,70,0.00,,,0.00,Wunderground v.1.15,2013-03-06 17:20:00,
2013-03-06 12:30:00,40.3,31.3,30.09,NNE,29,5.0,6.0,70,0.00,,,0.00,Wunderground v.1.15,2013-03-06 17:30:00,
2013-03-06 12:40:00,40.4,33.1,30.10,NE,36,5.0,5.0,75,0.00,,,0.00,Wunderground v.1.15,2013-03-06 17:40:00,
2013-03-06 12:50:00,39.7,32.8,30.10,North,355,3.0,3.0,76,0.00,,,0.00,Wunderground v.1.15,2013-03-06 17:50:00,
2013-03-06 13:00:00,39.8,33.2,30.10,North,9,3.0,4.0,77,0.00,,,0.00,Wunderground v.1.15,2013-03-06 18:00:00,
2013-03-06 13:09:00,39.7,32.8,30.10,North,355,3.0,3.0,76,0.00,,,0.00,Wunderground v.1.15,2013-03-06 18:09:00,
2013-03-06 13:20:00,39.7,32.1,30.10,North,5,3.0,3.0,74,0.00,,,0.00,Wunderground v.1.15,2013-03-06 18:20:00,
2013-03-06 13:30:00,39.5,32.2,30.11,North,355,2.0,2.0,75,0.00,,,0.00,Wunderground v.1.15,2013-03-06 18:30:00,
2013-03-06 13:39:00,39.7,31.8,30.11,North,5,2.0,2.0,73,0.00,,,0.00,Wunderground v.1.15,2013-03-06 18:39:00,
2013-03-06 13:50:00,39.7,32.1,30.11,North,5,2.0,2.0,74,0.00,,,0.00,Wunderground v.1.15,2013-03-06 18:50:00,
2013-03-06 14:00:00,39.5,32.2,30.11,North,5,2.0,2.0,75,0.00,,,0.00,Wunderground v.1.15,2013-03-06 19:00:00,
2013-03-06 14:09:00,39.6,32.3,30.11,North,5,2.0,2.0,75,0.00,,,0.00,Wunderground v.1.15,2013-03-06 19:09:00,
2013-03-06 14:20:00,39.4,31.5,30.12,North,360,1.0,2.0,73,0.00,,,0.00,Wunderground v.1.15,2013-03-06 19:20:00,
2013-03-06 14:29:00,38.7,31.8,30.12,WNW,289,1.0,2.0,76,0.00,,,0.00,Wunderground v.1.15,2013-03-06 19:29:00,
2013-03-06 14:40:00,38.1,32.2,30.12,WSW,237,1.0,3.0,79,0.00,,,0.00,Wunderground v.1.15,2013-03-06 19:40:00,
2013-03-06 14:50:00,38.2,32.6,30.12,West,262,2.0,2.0,80,0.00,,,0.00,Wunderground v.1.15,2013-03-06 19:50:00,
2013-03-06 15:00:00,38.0,32.4,30.12,SSW,209,1.0,1.0,80,0.00,,,0.00,Wunderground v.1.15,2013-03-06 20:00:00,
2013-03-06 15:09:00,37.1,31.8,30.12,SW,234,2.0,2.0,81,0.00,,,0.00,Wunderground v.1.15,2013-03-06 20:09:00,
2013-03-06 15:20:00,37.1,31.8,30.12,SW,219,2.0,2.0,81,0.00,,,0.00,Wunderground v.1.15,2013-03-06 20:20:00,
2013-03-06 15:29:00,37.5,32.2,30.13,SSW,206,1.0,1.0,81,0.00,,,0.00,Wunderground v.1.15,2013-03-06 20:29:00,
2013-03-06 15:39:00,37.4,31.5,30.13,SW,223,1.0,3.0,79,0.00,,,0.00,Wunderground v.1.15,2013-03-06 20:39:00,
2013-03-06 15:50:00,37.8,31.9,30.13,South,178,1.0,2.0,79,0.00,,,0.00,Wunderground v.1.15,2013-03-06 20:50:00,
2013-03-06 16:00:00,37.9,32.0,30.13,SSW,205,1.0,1.0,79,0.00,,,0.00,Wunderground v.1.15,2013-03-06 21:00:00,
2013-03-06 16:09:00,37.4,31.8,30.12,SSW,198,1.0,1.0,80,0.00,,,0.00,Wunderground v.1.15,2013-03-06 21:09:00,
2013-03-06 16:19:00,38.7,32.1,30.12,SW,220,2.0,5.0,77,0.00,,,0.00,Wunderground v.1.15,2013-03-06 21:19:00,
2013-03-06 16:29:00,39.3,32.7,30.13,SW,227,2.0,2.0,77,0.00,,,0.00,Wunderground v.1.15,2013-03-06 21:29:00,
2013-03-06 16:39:00,39.0,32.1,30.13,SW,219,2.0,2.0,76,0.00,,,0.00,Wunderground v.1.15,2013-03-06 21:39:00,
2013-03-06 16:49:00,38.1,31.5,30.13,SW,222,2.0,2.0,77,0.00,,,0.00,Wunderground v.1.15,2013-03-06 21:49:00,
2013-03-06 16:59:00,37.9,31.3,30.14,South,188,1.0,1.0,77,0.00,,,0.00,Wunderground v.1.15,2013-03-06 21:59:00,
2013-03-06 17:09:00,37.9,31.3,30.14,SSW,209,1.0,1.0,77,0.00,,,0.00,Wunderground v.1.15,2013-03-06 22:09:00,
2013-03-06 17:19:00,37.4,31.5,30.14,SW,216,0.0,0.0,79,0.00,,,0.00,Wunderground v.1.15,2013-03-06 22:19:00,
2013-03-06 17:29:00,37.2,31.6,30.15,SSW,210,1.0,1.0,80,0.00,,,0.00,Wunderground v.1.15,2013-03-06 22:29:00,
2013-03-06 17:39:00,36.8,31.2,30.15,WSW,252,1.0,1.0,80,0.00,,,0.00,Wunderground v.1.15,2013-03-06 22:39:00,
2013-03-06 17:49:00,36.3,31.0,30.15,SW,223,1.0,1.0,81,0.00,,,0.00,Wunderground v.1.15,2013-03-06 22:49:00,
2013-03-06 17:59:00,36.0,31.0,30.16,WSW,239,2.0,2.0,82,0.00,,,0.00,Wunderground v.1.15,2013-03-06 22:59:00,
2013-03-06 18:09:00,35.6,30.6,30.16,SW,225,1.0,1.0,82,0.00,,,0.00,Wunderground v.1.15,2013-03-06 23:09:00,
2013-03-06 18:19:00,35.1,30.5,30.17,WSW,238,3.0,3.0,83,0.00,,,0.00,Wunderground v.1.15,2013-03-06 23:19:00,
2013-03-06 18:29:00,34.6,30.3,30.17,SW,235,3.0,3.0,84,0.00,,,0.00,Wunderground v.1.15,2013-03-06 23:29:00,
2013-03-06 18:39:00,34.0,30.3,30.17,SW,232,3.0,3.0,86,0.00,,,0.00,Wunderground v.1.15,2013-03-06 23:39:00,
2013-03-06 18:49:00,33.8,30.3,30.17,SW,232,2.0,2.0,87,0.00,,,0.00,Wunderground v.1.15,2013-03-06 23:49:00,
2013-03-06 18:59:00,33.5,30.0,30.17,SW,232,0.0,0.0,87,0.00,,,0.00,Wunderground v.1.15,2013-03-06 23:59:00,
2013-03-06 19:09:00,33.4,30.2,30.17,WSW,240,2.0,3.0,88,0.00,,,0.00,Wunderground v.1.15,2013-03-07 00:09:00,
2013-03-06 19:19:00,33.4,30.2,30.18,WSW,245,1.0,3.0,88,0.00,,,0.00,Wunderground v.1.15,2013-03-07 00:19:00,
2013-03-06 19:29:00,33.3,30.1,30.18,WSW,242,3.0,3.0,88,0.00,,,0.00,Wunderground v.1.15,2013-03-07 00:29:00,
2013-03-06 19:39:00,33.3,30.4,30.18,SW,235,2.0,2.0,89,0.00,,,0.00,Wunderground v.1.15,2013-03-07 00:39:00,
2013-03-06 19:49:00,33.2,30.3,30.18,SW,228,1.0,1.0,89,0.00,,,0.00,Wunderground v.1.15,2013-03-07 00:49:00,
2013-03-06 19:59:00,33.1,30.2,30.18,SW,236,1.0,1.0,89,0.00,,,0.00,Wunderground v.1.15,2013-03-07 00:59:00,
2013-03-06 20:09:00,33.1,30.2,30.18,SW,229,0.0,0.0,89,0.00,,,0.00,Wunderground v.1.15,2013-03-07 01:09:00,
2013-03-06 20:19:00,33.1,30.2,30.19,WSW,242,0.0,1.0,89,0.00,,,0.00,Wunderground v.1.15,2013-03-07 01:19:00,
2013-03-06 20:29:00,33.2,30.3,30.19,SW,232,1.0,1.0,89,0.00,,,0.00,Wunderground v.1.15,2013-03-07 01:29:00,
2013-03-06 20:39:00,33.2,30.3,30.19,SW,234,1.0,1.0,89,0.00,,,0.00,Wunderground v.1.15,2013-03-07 01:39:00,
2013-03-06 20:49:00,33.2,30.3,30.19,SW,234,0.0,0.0,89,0.00,,,0.00,Wunderground v.1.15,2013-03-07 01:49:00,
2013-03-06 20:59:00,33.2,30.3,30.20,SW,223,0.0,1.0,89,0.00,,,0.00,Wunderground v.1.15,2013-03-07 01:59:00,
2013-03-06 21:10:00,33.2,30.3,30.20,SW,223,0.0,0.0,89,0.00,,,0.00,Wunderground v.1.15,2013-03-07 02:10:00,
2013-03-06 21:19:00,33.2,30.3,30.20,SW,223,0.0,0.0,89,0.00,,,0.00,Wunderground v.1.15,2013-03-07 02:19:00,
2013-03-06 21:30:00,33.3,30.4,30.19,SW,223,0.0,0.0,89,0.00,,,0.00,Wunderground v.1.15,2013-03-07 02:30:00,
2013-03-06 21:40:00,33.2,30.3,30.19,SW,223,0.0,0.0,89,0.00,,,0.00,Wunderground v.1.15,2013-03-07 02:40:00,
2013-03-06 21:49:00,33.2,30.3,30.19,SW,223,0.0,0.0,89,0.00,,,0.00,Wunderground v.1.15,2013-03-07 02:49:00,
2013-03-06 22:00:00,33.2,30.3,30.20,SW,229,0.0,0.0,89,0.00,,,0.00,Wunderground v.1.15,2013-03-07 03:00:00,
2013-03-06 22:09:00,33.5,30.6,30.20,WNW,284,1.0,1.0,89,0.00,,,0.00,Wunderground v.1.15,2013-03-07 03:09:00,
2013-03-06 22:20:00,33.6,30.4,30.20,NW,311,1.0,1.0,88,0.00,,,0.00,Wunderground v.1.15,2013-03-07 03:20:00,
2013-03-06 22:30:00,33.2,30.3,30.20,NE,50,1.0,2.0,89,0.00,,,0.00,Wunderground v.1.15,2013-03-07 03:30:00,
2013-03-06 22:40:00,33.0,30.4,30.20,NE,47,1.0,2.0,90,0.00,,,0.00,Wunderground v.1.15,2013-03-07 03:40:00,
2013-03-06 22:50:00,32.9,30.3,30.20,ENE,60,1.0,1.0,90,0.00,,,0.00,Wunderground v.1.15,2013-03-07 03:50:00,
2013-03-06 23:00:00,32.8,30.5,30.20,ENE,60,0.0,0.0,91,0.00,,,0.00,Wunderground v.1.15,2013-03-07 04:00:00,
2013-03-06 23:10:00,32.8,30.5,30.20,ENE,60,0.0,0.0,91,0.00,,,0.00,Wunderground v.1.15,2013-03-07 04:10:00,
2013-03-06 23:20:00,32.7,30.4,30.21,ENE,60,0.0,0.0,91,0.00,,,0.00,Wunderground v.1.15,2013-03-07 04:20:00,
2013-03-06 23:29:00,32.7,30.4,30.21,ENE,60,0.0,0.0,91,0.00,,,0.00,Wunderground v.1.15,2013-03-07 04:29:00,
2013-03-06 23:39:00,32.6,30.3,30.20,ENE,60,0.0,0.0,91,0.00,,,0.00,Wunderground v.1.15,2013-03-07 04:39:00,
2013-03-06 23:49:00,32.5,30.4,30.20,ENE,60,0.0,0.0,92,0.00,,,0.00,Wunderground v.1.15,2013-03-07 04:49:00,